Location: Campestrin
(46.4667°N, 11.7167°E)
Time: 06:55:50
(UTC+00:00)

CARTOSAT-1 - Pass Details

Date: 18 April 2021
Orbit: 615 x 619 km, 97.8° (Epoch: 15 May)

Event Time Altitude Azimuth Distance (km) Brightness Sun altitude
Exits shadow 21:04:20 47° 254° (WSW) 820 4.2 -25.7°
Maximum altitude 21:04:29 48° 261° (W) 818 4.2 -25.7°
Drops below altitude 10° 21:08:41 10° 336° (NNW) 1,994 7.2 -26.1°
Sets 21:10:57 0° 342° (NNW) 2,904 8.2 -26.3°
